Stations météo

Publicité
Konstanz, Allemagne (10929): Température de l'air & dewpoint: 20.04.2018 16:00:00 - 26.04.2018 16:00:00 (CEST)Konstanz, Allemagne (10929): Température de l'air 5cm & Température de l'air -5cm: 20.04.2018 16:00:00 - 26.04.2018 16:00:00 (CEST)Konstanz, Allemagne (10929): Température de l'air -20cm & Température de l'air -100cm: 20.04.2018 16:00:00 - 26.04.2018 16:00:00 (CEST)Konstanz, Allemagne (10929): Vitesse du vent & gusts: 20.04.2018 16:00:00 - 26.04.2018 16:00:00 (CEST)Konstanz, Allemagne (10929): Direction du vent: 20.04.2018 16:00:00 - 26.04.2018 16:00:00 (CEST)Konstanz, Allemagne (10929): reduced air pressure: 20.04.2018 16:00:00 - 26.04.2018 16:00:00 (CEST)Konstanz, Allemagne (10929): visibility: 20.04.2018 16:00:00 - 26.04.2018 16:00:00 (CEST)Konstanz, Allemagne (10929): Ensoleillement: 20.04.2018 16:00:00 - 26.04.2018 16:00:00 (CEST)Konstanz, Allemagne (10929): Quantités de précipitations: 20.04.2018 16:00:00 - 26.04.2018 16:00:00 (CEST)
Date & Time tt [°C] td [°C] tt 5cm [°C] tt -5cm [°C] tt -20cm [°C] tt -100cm [°C] ff [km/h] ff [knt] fx [km/h] fx [knt] dd ppp [hPa] vv [km] sd [min] rr [mm]
26.04.2018 16:00:00 13,2 3,9 16,5 18,8 17,4 13,8 10 6 19 11 WSW 1019,5 70 2 0,0
26.04.2018 15:00:00 13,1 4,6 15,1 18,4 17,3 13,8 11 6 26 14 WSW 1019,7 70 0 0,0
26.04.2018 14:00:00 13,2 4,3 15,5 18,4 17,2 13,8 16 9 28 15 SW 1019,7 70 0 0,0
26.04.2018 13:00:00 13,0 4,2 16,2 18,1 17,1 13,8 12 7 26 14 SW 1020,0 70 0 0,0
26.04.2018 12:00:00 12,9 4,8 15,5 17,3 17,1 13,7 12 6 26 14 WSW 1020,1 70 0 0,0
26.04.2018 11:00:00 12,2 4,2 13,8 17,4 17,0 13,7 14 8 32 18 WSW 1020,1 70 9 0,0
26.04.2018 10:00:00 12,3 5,0 14,2 16,0 17,1 13,7 13 7 27 14 WSW 1020,0 70 1 0,0
26.04.2018 09:00:00 11,5 6,7 12,4 15,6 17,3 13,7 5 3 11 6 SW 1019,9 70 0 0,0
26.04.2018 08:00:00 10,9 6,2 11,1 15,5 17,6 13,7 8 5 19 10 N 1019,5 70 0 0,0
26.04.2018 07:00:00 11,8 6,3 11,7 15,9 17,8 13,7 9 5 23 12 NW 1018,6 70 0 0,0
26.04.2018 06:00:00 12,4 6,4 12,4 16,2 18,0 13,7 16 9 38 21 NW 1017,7 70 0 0,0
26.04.2018 05:00:00 13,3 7,9 13,1 16,5 18,3 13,7 14 8 35 19 SW 1016,8 70 0 0,0
26.04.2018 04:00:00 13,6 7,6 13,3 16,8 18,6 13,7 16 9 33 18 WSW 1016,8 70 0 0,0
26.04.2018 03:00:00 13,9 6,5 13,4 17,2 18,9 13,6 16 8 29 16 W 1016,7 70 0 0,0
26.04.2018 02:00:00 14,0 7,2 13,7 17,8 19,2 13,6 13 7 30 16 W 1016,7 70 0 0,0
26.04.2018 01:00:00 15,7 5,5 15,2 18,4 19,4 13,6 12 7 37 20 WSW 1015,8 70 0 0,0
26.04.2018 00:00:00 16,9 6,6 16,4 19,0 19,7 13,6 18 10 34 19 W 1015,2 70 0 0,0
25.04.2018 23:00:00 18,0 7,4 17,6 19,6 20,0 13,6 16 9 32 17 W 1014,5 70 0 0,0
25.04.2018 22:00:00 18,6 7,5 18,1 20,2 20,3 13,6 16 9 32 17 WSW 1013,8 62 0 0,0
25.04.2018 21:00:00 19,1 8,4 18,6 21,0 20,5 13,6 15 8 32 18 WSW 1012,8 52 0 0,0
25.04.2018 20:00:00 20,1 8,4 19,4 22,2 20,7 13,6 13 7 38 21 W 1011,9 55 30 0,0
25.04.2018 19:00:00 20,5 8,8 20,3 23,8 20,7 13,6 18 10 42 23 W 1011,7 51 30 0,0
25.04.2018 18:00:00 22,3 9,2 24,4 25,3 20,5 13,6 22 12 43 23 W 1011,7 38 41 0,0
25.04.2018 17:00:00 22,5 9,2 25,3 26,4 20,1 13,6 24 13 42 23 W 1011,5 25 60 0,0
25.04.2018 16:00:00 22,9 9,3 27,1 26,4 19,6 13,6 24 13 46 25 W 1012,0 32 58 0,0
25.04.2018 15:00:00 22,6 8,7 27,1 26,2 19,0 13,5 25 14 46 25 W 1012,7 31 58 0,0
25.04.2018 14:00:00 22,4 8,5 27,4 25,5 18,3 13,5 22 12 39 21 WNW 1012,6 28 56 0,0
25.04.2018 13:00:00 21,6 9,2 26,4 24,4 17,6 13,5 21 11 45 24 WSW 1013,1 22 60 0,0
25.04.2018 12:00:00 20,1 9,7 24,9 22,2 17,1 13,5 17 9 44 24 W 1014,0 28 60 0,0
25.04.2018 11:00:00 19,4 8,9 23,3 20,2 16,7 13,5 21 11 34 19 W 1014,3 34 59 0,0
25.04.2018 10:00:00 18,4 8,8 21,1 17,8 16,6 13,5 11 6 24 13 WSW 1014,5 41 59 0,0
25.04.2018 09:00:00 15,2 10,6 15,6 15,1 16,7 13,5 5 3 8 4 S 1014,9 28 49 0,0
25.04.2018 08:00:00 13,1 10,5 13,0 14,3 16,9 13,5 4 2 8 4 ESE 1015,2 23 53 0,0
25.04.2018 07:00:00 11,1 9,7 9,4 14,1 17,2 13,4 4 2 6 3 ESE 1015,7 25 0 0,0
25.04.2018 06:00:00 10,4 9,1 9,0 14,4 17,6 13,4 5 3 6 4 ENE 1016,0 21 0 0,0
25.04.2018 05:00:00 11,1 9,4 8,7 14,9 17,9 13,4 3 2 8 4 W 1015,9 30 0 0,0
25.04.2018 04:00:00 11,4 9,5 10,0 15,5 18,3 13,4 3 2 6 4 NW 1015,9 35 0 0,0
25.04.2018 03:00:00 13,0 10,3 9,8 16,1 18,6 13,4 5 3 8 4 SW 1015,3 45 0 0,0
25.04.2018 02:00:00 13,8 11,0 11,0 16,7 19,0 13,4 5 3 8 4 W 1015,4 36 0 0,0
25.04.2018 01:00:00 13,8 10,4 11,4 17,3 19,4 13,4 4 2 11 6 W 1015,7 38 0 0,0
25.04.2018 00:00:00 15,5 8,9 13,1 18,0 19,8 13,4 7 4 10 6 WNW 1015,4 64 0 0,0
24.04.2018 23:00:00 15,4 9,4 12,2 18,9 20,2 13,4 4 2 6 3 WSW 1015,7 47 0 0,0
24.04.2018 22:00:00 16,2 8,8 13,1 19,9 20,6 13,4 4 2 6 4 S 1015,6 70 0 0,0
24.04.2018 21:00:00 17,1 8,7 14,5 21,2 21,0 13,3 3 2 7 4 ESE 1015,3 70 0 0,0
24.04.2018 20:00:00 20,8 6,6 18,9 23,0 21,1 13,3 5 3 19 10 WNW 1014,4 70 57 0,0
24.04.2018 19:00:00 22,3 5,9 22,9 24,9 21,1 13,3 9 5 22 12 WNW 1014,5 70 60 0,0
24.04.2018 18:00:00 22,2 5,6 24,5 26,4 20,8 13,3 13 7 28 15 W 1014,9 59 60 0,0
24.04.2018 17:00:00 22,8 5,5 26,5 27,3 20,4 13,3 16 9 30 16 WNW 1015,5 46 60 0,0
24.04.2018 16:00:00 22,7 6,9 27,5 27,5 19,8 13,3 15 8 32 18 W 1016,0 35 60 0,0
24.04.2018 15:00:00 21,9 7,4 27,7 27,2 19,1 13,3 15 8 28 15 W 1016,9 52 60 0,0
24.04.2018 14:00:00 20,2 7,7 26,2 26,6 18,3 13,3 12 7 24 13 WNW 1017,8 36 59 0,0
24.04.2018 13:00:00 20,2 9,1 26,0 25,1 17,6 13,3 10 5 18 10 SW 1018,3 49 60 0,0
24.04.2018 12:00:00 18,4 10,7 23,3 22,5 17,0 13,2 7 4 13 7 NW 1019,3 36 49 0,0
24.04.2018 11:00:00 17,5 10,5 22,4 20,5 16,6 13,2 5 3 14 7 SW 1019,8 45 56 0,0
24.04.2018 10:00:00 15,4 10,6 18,5 17,7 16,4 13,2 3 1 9 5 W 1020,5 32 53 0,0
24.04.2018 09:00:00 14,2 10,6 15,5 15,9 16,4 13,2 5 3 10 5 NW 1020,8 26 39 0,0
24.04.2018 08:00:00 13,8 11,6 13,8 15,0 16,6 13,2 3 1 5 3 N 1020,7 14 14 0,0
24.04.2018 07:00:00 12,0 11,1 11,9 14,6 16,8 13,2 3 2 7 4 E 1020,7 8 0 0,0
24.04.2018 06:00:00 11,9 10,8 11,5 14,6 17,0 13,1 5 3 7 4 NE 1020,6 14 0 0,0
24.04.2018 05:00:00 11,7 10,8 11,2 14,3 17,3 13,1 2 1 6 3 SSW 1020,7 17 0 0,0
24.04.2018 04:00:00 11,8 10,7 9,7 14,7 17,7 13,1 3 1 9 5 NE 1020,7 23 0 0,0
24.04.2018 03:00:00 12,7 10,6 10,6 15,3 18,1 13,1 6 3 14 8 WSW 1020,5 38 0 0,0
24.04.2018 02:00:00 13,0 10,6 11,7 15,9 18,4 13,1 9 5 23 13 W 1020,3 41 0 0,0
24.04.2018 01:00:00 13,5 10,8 13,0 16,6 18,8 13,1 9 5 22 12 WSW 1020,5 43 0 0,0
24.04.2018 00:00:00 13,4 11,0 12,9 17,2 19,2 13,1 8 4 18 10 WSW 1020,4 51 0 0,0
23.04.2018 23:00:00 13,4 11,1 12,8 17,9 19,5 13,1 6 3 14 8 W 1020,2 49 0 0,1
23.04.2018 22:00:00 13,4 11,8 13,1 18,7 19,9 13,0 8 4 13 7 S 1019,7 45 0 0,7
23.04.2018 21:00:00 14,0 12,4 13,6 19,7 20,3 13,0 6 3 29 16 WSW 1019,1 14 0 1,5
23.04.2018 20:00:00 17,1 10,2 16,6 21,0 20,6 13,0 13 7 28 15 W 1017,8 43 0 0,0
23.04.2018 19:00:00 18,2 10,1 18,2 22,4 20,7 13,0 15 8 28 15 NW 1016,9 70 0 0,0
23.04.2018 18:00:00 19,8 11,3 18,6 23,9 20,7 13,0 7 4 20 11 NW 1016,1 58 5 0,0
23.04.2018 17:00:00 20,7 10,0 23,5 25,2 20,6 13,0 8 5 27 15 NNW 1016,0 70 16 0,0
23.04.2018 16:00:00 21,3 9,3 23,9 27,1 20,1 13,0 17 9 31 17 N 1015,9 53 58 0,0
23.04.2018 15:00:00 21,1 8,7 25,3 27,1 19,5 12,9 23 12 44 24 NNW 1016,0 34 60 0,0
23.04.2018 14:00:00 24,4 7,3 30,0 26,8 18,8 12,9 15 8 26 14 W 1015,0 42 59 0,0
23.04.2018 13:00:00 24,2 6,6 32,2 25,7 18,1 12,9 9 5 19 10 SW 1015,4 40 60 0,0
23.04.2018 12:00:00 22,1 6,3 26,9 22,9 17,6 12,9 12 6 22 12 W 1016,1 59 51 0,0
23.04.2018 11:00:00 21,1 7,4 25,3 21,3 17,2 12,9 7 4 12 6 SW 1016,4 42 58 0,0
23.04.2018 10:00:00 19,6 10,2 23,0 18,6 17,1 12,8 3 2 9 5 S 1016,5 43 60 0,0
23.04.2018 09:00:00 17,2 10,3 17,2 16,3 17,2 12,8 4 2 7 4 E 1016,8 38 51 0,0
23.04.2018 08:00:00 15,4 10,0 15,7 15,9 17,3 12,8 3 1 12 7 E 1016,8 38 33 0,0
23.04.2018 07:00:00 13,0 9,6 11,6 15,5 17,6 12,8 6 4 8 5 NNE 1017,3 37 0 0,0
23.04.2018 06:00:00 13,4 9,7 11,3 16,0 17,9 12,8 4 2 8 5 E 1017,0 42 0 0,0
23.04.2018 05:00:00 14,2 9,7 13,1 16,3 18,2 12,8 7 4 9 5 NE 1016,9 42 0 0,0
23.04.2018 04:00:00 13,5 9,0 11,4 16,5 18,5 12,7 5 3 8 4 NE 1017,0 48 0 0,0
23.04.2018 03:00:00 15,7 8,0 11,7 17,0 18,8 12,7 4 2 8 4 SW 1016,4 64 0 0,0
23.04.2018 02:00:00 17,7 7,8 13,0 17,6 19,2 12,7 6 3 10 6 W 1015,9 52 0 0,0
23.04.2018 01:00:00 18,0 7,8 13,8 18,2 19,6 12,7 8 4 12 6 W 1015,7 59 0 0,0
23.04.2018 00:00:00 17,9 8,2 15,6 18,9 20,0 12,7 10 5 12 7 W 1015,3 64 0 0,0
22.04.2018 23:00:00 18,8 7,2 14,2 19,7 20,4 12,7 5 3 11 6 W 1014,7 70 0 0,0
22.04.2018 22:00:00 20,0 7,5 15,2 20,7 20,7 12,7 5 3 8 5 W 1014,1 70 0 0,0
22.04.2018 21:00:00 21,5 7,0 16,6 22,1 21,0 12,7 6 3 8 4 W 1013,4 70 0 0,0
22.04.2018 20:00:00 24,3 6,5 22,0 23,8 21,1 12,6 7 4 18 10 SW 1012,5 70 55 0,0
22.04.2018 19:00:00 25,8 5,1 25,4 25,6 21,0 12,6 11 6 23 12 WSW 1012,1 70 60 0,0
22.04.2018 18:00:00 26,9 5,6 28,9 27,1 20,7 12,6 13 7 24 13 W 1012,0 59 60 0,0
22.04.2018 17:00:00 27,0 6,2 30,5 27,9 20,2 12,6 11 6 21 12 WSW 1012,3 47 55 0,0
22.04.2018 16:00:00 25,4 10,0 28,0 28,2 19,5 12,6 8 4 18 10 SE 1013,1 50 58 0,0
22.04.2018 15:00:00 24,5 9,7 29,7 27,7 18,8 12,6 6 4 12 7 E 1014,0 35 60 0,0
22.04.2018 14:00:00 24,8 8,9 31,1 26,7 18,0 12,6 5 3 12 6 SSE 1014,5 39 60 0,0
22.04.2018 13:00:00 22,4 9,9 27,5 25,0 17,2 12,5 8 4 10 5 ENE 1015,5 31 60 0,0
22.04.2018 12:00:00 21,1 9,2 26,3 22,7 16,6 12,5 5 3 11 6 E 1016,1 41 60 0,0
22.04.2018 11:00:00 19,1 8,3 24,0 20,0 16,2 12,5 5 3 11 6 E 1016,7 31 60 0,0
22.04.2018 10:00:00 17,1 7,9 20,7 17,1 16,1 12,5 5 3 9 5 E 1017,2 34 60 0,0
22.04.2018 09:00:00 15,4 9,1 15,2 14,5 16,3 12,5 5 3 9 5 NNE 1017,6 27 60 0,0
22.04.2018 08:00:00 12,8 9,3 13,4 14,1 16,5 12,4 5 3 8 5 WNW 1018,0 25 60 0,0
22.04.2018 07:00:00 10,8 9,0 8,3 14,1 16,9 12,4 3 2 8 5 N 1018,1 21 4 0,0
22.04.2018 06:00:00 11,5 9,5 8,7 14,5 17,2 12,4 8 4 9 5 WNW 1017,8 20 0 0,0
22.04.2018 05:00:00 11,8 9,2 8,6 15,0 17,5 12,4 3 2 8 4 WNW 1017,7 26 0 0,0
22.04.2018 04:00:00 12,3 8,5 9,0 15,6 17,9 12,4 4 2 7 4 N 1017,6 33 0 0,0
22.04.2018 03:00:00 13,5 8,5 10,6 16,2 18,3 12,4 2 1 6 3 NW 1017,5 30 0 0,0
22.04.2018 02:00:00 13,8 8,5 10,3 16,8 18,7 12,3 4 2 11 6 WNW 1017,8 24 0 0,0
22.04.2018 01:00:00 14,9 8,9 12,7 17,5 19,0 12,3 9 5 12 7 NNE 1017,7 39 0 0,0
22.04.2018 00:00:00 16,1 8,3 12,4 18,3 19,4 12,3 5 3 15 8 E 1017,3 48 0 0,0
21.04.2018 23:00:00 17,1 8,2 14,0 19,2 19,8 12,3 8 4 11 6 NNE 1017,1 55 0 0,0
21.04.2018 22:00:00 17,6 8,1 15,2 20,3 20,2 12,3 9 5 10 6 E 1016,9 61 0 0,0
21.04.2018 21:00:00 19,4 6,3 16,9 21,7 20,4 12,3 7 4 9 5 E 1016,5 68 5 0,0
21.04.2018 20:00:00 23,8 3,9 20,9 23,5 20,5 12,3 4 2 7 4 SE 1015,5 70 60 0,0
21.04.2018 19:00:00 25,1 5,4 25,3 25,3 20,4 12,3 5 3 10 5 SE 1015,5 70 60 0,0
21.04.2018 18:00:00 25,9 6,9 27,5 26,5 20,0 12,2 6 4 10 5 E 1015,8 50 60 0,0
21.04.2018 17:00:00 24,7 8,7 28,0 27,2 19,5 12,2 7 4 11 6 E 1016,4 44 60 0,0
21.04.2018 16:00:00 25,1 8,9 29,1 27,2 18,9 12,2 8 4 11 6 E 1017,0 41 60 0,0
21.04.2018 15:00:00 23,4 7,8 28,3 26,5 18,1 12,2 9 5 14 7 E 1018,2 41 60 0,0
21.04.2018 14:00:00 22,7 9,8 28,4 25,8 17,4 12,2 10 5 14 8 E 1018,8 31 60 0,0
21.04.2018 13:00:00 22,0 8,7 27,5 24,3 16,6 12,2 10 5 13 7 E 1019,4 31 60 0,0
21.04.2018 12:00:00 19,9 8,7 24,5 22,0 16,0 12,1 7 4 11 6 E 1020,4 32 60 0,0
21.04.2018 11:00:00 18,6 9,3 23,2 19,4 15,6 12,1 6 3 10 5 E 1021,0 31 60 0,0
21.04.2018 10:00:00 17,4 9,4 20,2 16,4 15,5 12,1 3 2 7 4 SE 1021,2 37 60 0,0
21.04.2018 09:00:00 14,7 8,7 14,3 13,7 15,6 12,1 3 2 8 5 W 1021,7 29 60 0,0
21.04.2018 08:00:00 12,7 8,0 13,2 13,4 15,9 12,1 0 0 4 2 N 1021,9 31 60 0,0
21.04.2018 07:00:00 9,9 8,0 7,4 13,3 16,2 12,1 2 1 8 4 WSW 1022,0 30 6 0,0
21.04.2018 06:00:00 9,9 8,0 7,7 13,8 16,5 12,0 5 3 10 5 NNE 1021,6 29 0 0,0
21.04.2018 05:00:00 10,9 8,1 8,3 14,3 16,9 12,0 6 4 11 6 W 1021,5 29 0 0,0
21.04.2018 04:00:00 12,3 9,2 10,5 14,8 17,2 12,0 9 5 11 6 NW 1021,2 34 0 0,0
21.04.2018 03:00:00 12,9 7,5 9,4 15,3 17,6 12,0 4 2 7 4 NNW 1021,2 50 0 0,0
21.04.2018 02:00:00 13,5 7,9 11,2 16,0 18,0 12,0 2 1 5 3 NNW 1021,2 45 0 0,0
21.04.2018 01:00:00 14,1 8,1 10,5 16,7 18,4 12,0 4 2 8 5 N 1021,4 45 0 0,0
21.04.2018 00:00:00 15,0 7,6 11,2 17,5 18,8 11,9 6 4 12 7 N 1021,3 43 0 0,0
20.04.2018 23:00:00 16,6 6,8 13,7 18,4 19,2 11,9 10 5 13 7 NNE 1021,1 70 0 0,0
20.04.2018 22:00:00 17,5 6,3 13,9 19,5 19,6 11,9 5 3 8 5 NE 1021,0 70 0 0,0
20.04.2018 21:00:00 18,7 6,9 15,7 20,9 19,8 11,9 4 2 8 4 ESE 1020,6 70 13 0,0
20.04.2018 20:00:00 21,4 6,8 19,0 22,8 19,9 11,9 5 3 8 5 ESE 1019,9 70 60 0,0
20.04.2018 19:00:00 24,2 5,2 24,2 24,7 19,8 11,9 4 2 10 6 E 1019,5 70 60 0,0
20.04.2018 18:00:00 24,8 6,3 26,7 26,1 19,4 11,9 6 4 11 6 E 1019,8 54 60 0,0
20.04.2018 17:00:00 24,3 5,3 27,7 26,7 18,9 11,9 9 5 11 6 E 1020,5 44 60 0,0
20.04.2018 16:00:00 24,8 8,4 28,5 26,5 18,2 11,8 6 4 9 5 E 1021,0 39 60 0,0

tt = Température de l'air
td = dewpoint
tt 5cm = Température de l'air 5cm
tt -5cm = Température de l'air -5cm
tt -20cm = Température de l'air -20cm
tt -100cm = Température de l'air -100cm
ff = Vitesse du vent
fx = gusts
dd = Direction du vent
ppp = reduced air pressure
vv = visibility
sd = Ensoleillement
rr = Quantités de précipitations

stations d'obs. à proximité